TimeAKST,TemperatureF,Dew PointF,Humidity,Sea Level PressureIn,VisibilityMPH,Wind Direction,Wind SpeedMPH,Gust SpeedMPH,PrecipitationIn,Events,Conditions,WindDirDegrees,DateUTC
12:53 AM,30.9,28.0,89,29.66,5.0,NNE,4.6,-,0.00,Snow,Light Snow,20,2013-01-06 09:53:00
1:49 AM,37.4,33.8,87,29.65,10.0,SSW,16.1,24.2,0.00,,Overcast,200,2013-01-06 10:49:00
1:53 AM,37.0,33.1,86,29.65,10.0,SSW,16.1,25.3,0.01,,Overcast,200,2013-01-06 10:53:00
2:00 AM,37.4,33.8,87,29.66,10.0,SSW,16.1,25.3,N/A,,Overcast,200,2013-01-06 11:00:00
2:53 AM,37.9,33.1,83,29.66,10.0,SSW,19.6,29.9,0.01,,Overcast,200,2013-01-06 11:53:00
3:53 AM,37.9,33.1,83,29.66,10.0,SSW,17.3,24.2,N/A,,Overcast,200,2013-01-06 12:53:00
4:53 AM,37.9,33.1,83,29.65,10.0,SSW,11.5,20.7,N/A,,Overcast,200,2013-01-06 13:53:00
5:53 AM,37.9,33.1,83,29.65,10.0,SSW,13.8,20.7,N/A,,Mostly Cloudy,200,2013-01-06 14:53:00
6:53 AM,37.9,33.1,83,29.65,10.0,SSW,12.7,-,N/A,,Overcast,200,2013-01-06 15:53:00
7:53 AM,37.9,33.1,83,29.64,10.0,SSW,11.5,20.7,N/A,,Overcast,200,2013-01-06 16:53:00
8:53 AM,37.9,32.0,79,29.65,10.0,South,16.1,-,N/A,,Mostly Cloudy,190,2013-01-06 17:53:00
9:53 AM,37.9,32.0,79,29.66,10.0,SSW,12.7,20.7,N/A,,Clear,200,2013-01-06 18:53:00
10:53 AM,39.0,30.9,73,29.66,10.0,SSW,13.8,23.0,N/A,,Partly Cloudy,200,2013-01-06 19:53:00
11:53 AM,39.0,30.9,73,29.66,10.0,SSW,13.8,23.0,N/A,,Mostly Cloudy,200,2013-01-06 20:53:00
12:53 PM,39.0,30.9,73,29.63,10.0,SSW,9.2,20.7,N/A,,Overcast,210,2013-01-06 21:53:00
1:53 PM,39.0,30.9,73,29.63,10.0,SSW,13.8,21.9,N/A,,Overcast,200,2013-01-06 22:53:00
2:53 PM,39.0,30.9,73,29.62,10.0,SSW,16.1,20.7,N/A,,Overcast,200,2013-01-06 23:53:00
3:53 PM,37.0,30.9,79,29.61,10.0,NE,4.6,-,N/A,,Overcast,50,2013-01-07 00:53:00
4:53 PM,37.0,30.9,79,29.57,10.0,NE,9.2,-,N/A,,Overcast,50,2013-01-07 01:53:00
6:53 PM,39.9,30.9,70,29.54,10.0,SSW,15.0,-,N/A,,Overcast,200,2013-01-07 03:53:00
7:53 PM,39.0,30.9,73,29.52,10.0,SSW,18.4,24.2,N/A,,Overcast,200,2013-01-07 04:53:00
8:53 PM,39.0,30.9,73,29.51,10.0,South,5.8,20.7,N/A,,Overcast,180,2013-01-07 05:53:00
9:53 PM,36.0,30.0,79,29.48,10.0,East,3.5,-,N/A,,Overcast,80,2013-01-07 06:53:00
10:53 PM,36.0,30.0,79,29.46,10.0,NNE,3.5,-,N/A,,Mostly Cloudy,30,2013-01-07 07:53:00
11:01 PM,35.6,30.2,81,29.45,10.0,ENE,5.8,-,N/A,,Mostly Cloudy,60,2013-01-07 08:01:00
11:53 PM,34.0,30.0,85,29.45,10.0,Calm,Calm,-,N/A,,Overcast,0,2013-01-07 08:53:00